Regional Weather Roundup
Issued by NWS

Home | Current Version | Previous Version | Graphics & Text | Print | Product List | Glossary On
Versions: 1 2 3 4 5 6 7 8 9 10 11 12 13 14 15 16 17 18 19 20 21 22 23 24 25 26 27 28 29 30 31 32 33 34 35 36 37 38 39 40 41 42 43 44 45 46 47 48 49 50
000
ASUS45 KTFX 020810
RWRMT
MONTANA REGIONAL WEATHER ROUNDUP
NATIONAL WEATHER SERVICE GREAT FALLS MT
200 AM MDT THU JUL 02 2015

NOTE: "FAIR" INDICATES FEW OR NO CLOUDS BELOW 12000 FEET WITH NO
SIGNIFICANT WEATHER AND/OR OBSTRUCTIONS TO VISIBILITY.

MTZ001>007-043-020900-
WEST OF THE DIVIDE

CITY           SKY/WX    TMP DP  RH WIND       PRES   REMARKS
KALISPELL      SUNNY     72  53  51 NE10      30.08R
MISSOULA       CLEAR     75  51  43 E8        30.08R
BUTTE          CLEAR     57  47  69 SE7       30.25R
MULLAN PASS    CLEAR     67  37  33 CALM      30.24S
DEER LODGE       N/A     64  52  63 N6        30.24S
EUREKA           N/A     64  54  68 CALM      30.08R
HAMILTON         N/A     63  46  55 NE5       30.09R
RONAN            N/A     69  56  63 CALM      30.10R
$$

MTZ008-052>055-020900-
SOUTHWEST MONTANA

CITY           SKY/WX    TMP DP  RH WIND       PRES   REMARKS
BOZEMAN        CLEAR     60  52  74 N3        30.17R
DILLON         CLEAR     64  50  60 N5        30.18R
W YELLOWSTONE  CLEAR     50  45  81 CALM      30.27R
THREE FORKS      N/A     65  65 100 SW5       30.15R
$$

MTZ009-010-012-014-046-048-049-054-020900-
EAST SLOPES AND CENTRAL MONTANA

CITY           SKY/WX    TMP DP  RH WIND       PRES   REMARKS
CUT BANK       PTCLDY    57  51  80 CALM      30.21S
GREAT FALLS    MOCLDY    66  51  58 NE7       30.18F
MALMSTROM AFB  MOCLDY    64  52  65 NE6       30.18F
HELENA         CLEAR     68  52  56 W7        30.17R
$$

MTZ011-013-016-021-045-047-050-051-020900-
NORTH CENTRAL MONTANA

CITY           SKY/WX    TMP DP  RH WIND       PRES   REMARKS
HAVRE          PTCLDY    58  54  86 SW5       30.12S
LEWISTOWN      MOCLDY    64  52  64 W8        30.19F
CHINOOK          N/A     61  55  82 NW3       30.10S
FORT BENTON      N/A     64  54  68 CALM      30.16R
$$

MTZ017>020-022>027-061-062-020900-
NORTHEAST MONTANA

CITY           SKY/WX    TMP DP  RH WIND       PRES   REMARKS
GLASGOW        PTCLDY    60  51  72 W6        30.04F
JORDAN           N/A     60  53  77 W5        30.09S
SIDNEY         PTCLDY    59  55  88 CALM      30.02S
WOLF POINT     CLEAR     57  55  93 W5        30.03F
MALTA            N/A     58  53  83 CALM      30.04S
PLENTYWOOD       N/A     55  55 100 W5        30.01R
$$

MTZ028>42-056>058-020900-
SOUTHCENTRAL AND SOUTHEAST MONTANA

CITY           SKY/WX    TMP DP  RH WIND       PRES   REMARKS
BAKER          CLEAR     59  56  89 CALM      30.05S
BILLINGS       PTCLDY    65  54  67 NW8       30.15S
LIVINGSTON     CLEAR     65  53  65 E12       30.19R
MILES CITY     CLEAR     62  56  80 W9        30.06R
FORSYTH          N/A     64  64 100 SW3       30.07F
LAUREL           N/A     65  51  60 W5        30.12F
ROUNDUP          N/A     66  56  70 CALM      30.06R
$$

REGIONAL REPORTS...DAKOTAS

CITY           SKY/WX    TMP DP  RH WIND       PRES   REMARKS
WILLISTON      MOCLDY    62  56  80 SW7       30.00S
MINOT          MOCLDY    63  61  93 CALM      29.94F FOG
DICKINSON      CLOUDY    63  60  90 NW7       29.99S FOG
BEACH          CLOUDY    55  55 100 NW3       30.05S
CROSBY         FAIR      59  59 100 SW5       29.98S FOG
BISMARCK       CLOUDY    67  64  90 S5        29.94F
GRAND FORKS    CLEAR     60  57  89 S5        29.94F
FARGO          CLEAR     60  55  83 SE6       29.97F
BUFFALO SD       N/A     59  58  96 W10       29.98R
RAPID CITY     CLOUDY    63  61  93 SW6       30.03F
$$

REGIONAL REPORTS...WYOMING/IDAHO/WASHINGTON

CITY           SKY/WX    TMP DP  RH WIND       PRES   REMARKS
GILLETTE       CLOUDY    61  58  90 W8        30.15R
SHERIDAN       CLEAR     60  55  83 CALM      30.13R
BUFFALO WY     CLEAR     61  56  83 W5        30.18F
CODY           CLEAR     66  46  48 NW6       30.20S
YELLOWSTONE LA   N/A     50  41  71 NW5       30.36S
IDAHO FALLS    CLEAR     60  54  80 N3        30.07R
SALMON         CLEAR     66  41  39 CALM      30.09R
BOISE          MOCLDY    78  44  29 S5        29.94S
SPOKANE        CLEAR     77  45  32 N3        30.00S
$$

REGIONAL REPORTS...ALBERTA

CITY           SKY/WX    TMP DP  RH WIND       PRES   REMARKS
EDMONTON       CLEAR     59  52  77 W6        30.09S
CALGARY        PTCLDY    61  54  77 NW3       30.19F
LETHBRIDGE     CLEAR     54  52  94 SW8       30.18S
MEDICINE HAT   CLEAR     59  55  88 W5        30.12S
WATERTON GATE    N/A     52  50  93 NE1         N/A
MILK RIVER       N/A     54  52  94 NW6         N/A
ONEFOUR          N/A     57  54  88 NW10        N/A
$$

REGIONAL REPORTS...SASKATCHEWAN

CITY           SKY/WX    TMP DP  RH WIND       PRES   REMARKS
SWIFT CURRENT  CLOUDY    61 N/A N/A W9        30.05S
REGINA         PTCLDY    59  59 100 NW3       29.99R
SASKATOON      PTCLDY    57  55  94 W8        30.00R
CYPRESS HILLS    N/A     55  52  88 NW5         N/A
VAL MARIE        N/A     57  55  94 NW7         N/A
$$


USA.gov is the U.S. government's official web portal to all federal, state and local government web resources and services.